| time (UTC) | temp C | wind direction | speed KPH | gust KPH | rain 1hr cm | rain 24hr cm | rain mn cm | humidity % | barometer mb |
| 20260506141232 | 7 | 110 | 6.4 | 22.5 | 0.00 | 0.00 | 0.00 | 69 | 1015.4 |
| 20260506140733 | 7 | 110 | 11.3 | 22.5 | 0.00 | 0.00 | 0.00 | 69 | 1015.3 |
| 20260506140231 | 7 | 134 | 9.7 | 24.1 | 0.00 | 0.00 | 0.00 | 70 | 1015.3 |
| 20260506140127 | 7 | 89 | 14.5 | 27.4 | 0.00 | 0.00 | 0.00 | 70 | 1015.1 |
| 20260506135624 | 6 | 114 | 17.7 | 27.4 | 0.00 | 0.00 | 0.00 | 70 | 1015.1 |
| 20260506134731 | 6 | 120 | 19.3 | 25.7 | 0.00 | 0.00 | 0.00 | 70 | 1015.1 |
| 20260506134231 | 6 | 78 | 12.9 | 25.7 | 0.00 | 0.00 | 0.00 | 70 | 1015.1 |
| 20260506133732 | 6 | 83 | 11.3 | 25.7 | 0.00 | 0.00 | 0.00 | 71 | 1015.2 |
| 20260506133231 | 6 | 118 | 12.9 | 20.9 | 0.00 | 0.00 | 0.00 | 71 | 1015.3 |
| 20260506132731 | 6 | 90 | 8.0 | 22.5 | 0.00 | 0.00 | 0.00 | 71 | 1015.5 |
| 20260506132232 | 6 | 85 | 9.7 | 22.5 | 0.00 | 0.00 | 0.00 | 72 | 1015.5 |
| 20260506131731 | 6 | 128 | 11.3 | 20.9 | 0.00 | 0.00 | 0.00 | 71 | 1015.3 |
| 20260506131231 | 6 | 94 | 12.9 | 22.5 | 0.00 | 0.00 | 0.00 | 72 | 1015.5 |
| 20260506130731 | 6 | 99 | 11.3 | 24.1 | 0.00 | 0.00 | 0.00 | 72 | 1015.6 |
| 20260506130618 | 6 | 118 | 14.5 | 24.1 | 0.00 | 0.00 | 0.00 | 71 | 1015.9 |
| 20260506125732 | 6 | 100 | 12.9 | 24.1 | 0.00 | 0.00 | 0.00 | 71 | 1015.9 |
| 20260506125233 | 6 | 75 | 6.4 | 19.3 | 0.00 | 0.00 | 0.00 | 71 | 1015.6 |
| 20260506124732 | 6 | 127 | 8.0 | 19.3 | 0.00 | 0.00 | 0.00 | 72 | 1015.7 |
| 20260506124231 | 6 | 82 | 4.8 | 19.3 | 0.00 | 0.00 | 0.00 | 73 | 1015.8 |
| 20260506123731 | 6 | 104 | 11.3 | 19.3 | 0.00 | 0.00 | 0.00 | 72 | 1015.5 |
| 20260506123232 | 6 | 86 | 8.0 | 19.3 | 0.00 | 0.00 | 0.00 | 73 | 1015.6 |
| 20260506123119 | 5 | 93 | 4.8 | 14.5 | 0.00 | 0.00 | 0.00 | 73 | 1015.8 |
| 20260506122231 | 5 | 97 | 4.8 | 14.5 | 0.00 | 0.00 | 0.00 | 73 | 1015.9 |
| 20260506121731 | 5 | 117 | 6.4 | 17.7 | 0.00 | 0.00 | 0.00 | 73 | 1015.6 |
| 20260506121233 | 5 | 124 | 8.0 | 17.7 | 0.00 | 0.00 | 0.00 | 73 | 1015.5 |
| 20260506120731 | 5 | 140 | 6.4 | 19.3 | 0.00 | 0.00 | 0.00 | 73 | 1015.5 |
| 20260506120232 | 5 | 103 | 12.9 | 22.5 | 0.00 | 0.00 | 0.00 | 73 | 1015.4 |
| 20260506115734 | 5 | 96 | 14.5 | 27.4 | 0.00 | 0.00 | 0.00 | 73 | 1015.3 |
| 20260506115234 | 5 | 110 | 11.3 | 27.4 | 0.00 | 0.00 | 0.00 | 74 | 1015.3 |
| 20260506114731 | 5 | 94 | 11.3 | 27.4 | 0.00 | 0.00 | 0.00 | 75 | 1015.1 |
| 20260506114231 | 5 | 117 | 12.9 | 27.4 | 0.00 | 0.00 | 0.00 | 75 | 1014.9 |
| 20260506113732 | 5 | 90 | 12.9 | 20.9 | 0.00 | 0.00 | 0.00 | 77 | 1014.9 |
| 20260506113622 | 5 | 104 | 8.0 | 19.3 | 0.00 | 0.00 | 0.00 | 79 | 1014.7 |
| 20260506112731 | 5 | 92 | 8.0 | 20.9 | 0.00 | 0.00 | 0.00 | 80 | 1014.7 |
| 20260506112231 | 5 | 94 | 11.3 | 22.5 | 0.00 | 0.00 | 0.00 | 81 | 1014.8 |
| 20260506111736 | 5 | 104 | 11.3 | 22.5 | 0.00 | 0.00 | 0.00 | 82 | 1014.8 |
| 20260506111231 | 5 | 107 | 12.9 | 29.0 | 0.00 | 0.00 | 0.00 | 83 | 1014.6 |
| 20260506110734 | 5 | 83 | 11.3 | 29.0 | 0.00 | 0.00 | 0.00 | 83 | 1014.6 |
| 20260506110232 | 5 | 114 | 14.5 | 24.1 | 0.00 | 0.00 | 0.00 | 83 | 1014.6 |
| 20260506110125 | 5 | 120 | 12.9 | 22.5 | 0.00 | 0.00 | 0.00 | 82 | 1014.7 |
| 20260506105232 | 5 | 100 | 11.3 | 25.7 | 0.00 | 0.00 | 0.00 | 82 | 1014.7 |
| 20260506104731 | 5 | 161 | 14.5 | 25.7 | 0.00 | 0.00 | 0.00 | 81 | 1014.8 |
| 20260506104232 | 5 | 124 | 9.7 | 20.9 | 0.00 | 0.00 | 0.00 | 81 | 1014.8 |
| 20260506103731 | 5 | 110 | 6.4 | 22.5 | 0.00 | 0.00 | 0.00 | 82 | 1014.7 |
| 20260506103231 | 5 | 127 | 11.3 | 22.5 | 0.00 | 0.00 | 0.00 | 82 | 1014.6 |
| 20260506103126 | 5 | 83 | 11.3 | 22.5 | 0.00 | 0.00 | 0.00 | 83 | 1014.6 |
| 20260506102231 | 5 | 96 | 12.9 | 20.9 | 0.00 | 0.00 | 0.00 | 83 | 1014.6 |
| 20260506101731 | 6 | 90 | 6.4 | 16.1 | 0.00 | 0.00 | 0.00 | 82 | 1014.6 |
| 20260506101231 | 6 | 103 | 6.4 | 16.1 | 0.00 | 0.00 | 0.00 | 81 | 1014.6 |
| 20260506100731 | 6 | 76 | 3.2 | 16.1 | 0.00 | 0.00 | 0.00 | 80 | 1014.7 |
| 20260506100231 | 6 | 79 | 6.4 | 16.1 | 0.00 | 0.00 | 0.00 | 80 | 1014.4 |
| 20260506100134 | 6 | 0 | 3.2 | 11.3 | 0.00 | 0.00 | 0.00 | 80 | 1014.4 |
| 20260506095622 | 6 | 45 | 1.6 | 11.3 | 0.00 | 0.00 | 0.00 | 81 | 1014.2 |
| 20260506094732 | 6 | 27 | 3.2 | 17.7 | 0.00 | 0.00 | 0.00 | 81 | 1014.0 |
| 20260506094232 | 6 | 86 | 9.7 | 17.7 | 0.00 | 0.00 | 0.00 | 80 | 1013.9 |
| 20260506093734 | 6 | 92 | 6.4 | 25.7 | 0.00 | 0.00 | 0.00 | 81 | 1013.9 |
| 20260506093232 | 6 | 118 | 9.7 | 25.7 | 0.00 | 0.00 | 0.00 | 80 | 1013.7 |
| 20260506092732 | 7 | 116 | 11.3 | 22.5 | 0.00 | 0.00 | 0.00 | 79 | 1013.8 |
| 20260506092231 | 7 | 73 | 6.4 | 20.9 | 0.00 | 0.00 | 0.00 | 79 | 1013.5 |
| 20260506091731 | 7 | 87 | 3.2 | 20.9 | 0.00 | 0.00 | 0.00 | 79 | 1013.5 |
| 20260506091233 | 7 | 111 | 4.8 | 17.7 | 0.00 | 0.00 | 0.00 | 79 | 1013.5 |
| 20260506091120 | 7 | 100 | 8.0 | 16.1 | 0.00 | 0.00 | 0.00 | 79 | 1013.4 |
| 20260506090232 | 7 | 110 | 8.0 | 16.1 | 0.00 | 0.00 | 0.00 | 79 | 1013.4 |
| 20260506090134 | 7 | 131 | 3.2 | 16.1 | 0.00 | 0.00 | 0.00 | 78 | 1013.4 |
| 20260506085614 | 7 | 79 | 8.0 | 16.1 | 0.00 | 0.00 | 0.00 | 78 | 1013.5 |
| 20260506085130 | 7 | 104 | 6.4 | 14.5 | 0.00 | 0.00 | 0.00 | 77 | 1013.5 |
| 20260506084233 | 7 | 38 | 1.6 | 14.5 | 0.00 | 0.00 | 0.00 | 77 | 1013.6 |
| 20260506083730 | 7 | 48 | 3.2 | 16.1 | 0.00 | 0.00 | 0.00 | 77 | 1013.5 |
| 20260506083232 | 7 | 90 | 6.4 | 17.7 | 0.00 | 0.00 | 0.00 | 77 | 1013.4 |
| 20260506082732 | 7 | 110 | 3.2 | 17.7 | 0.00 | 0.00 | 0.00 | 77 | 1013.4 |
| 20260506082629 | 7 | 72 | 4.8 | 14.5 | 0.00 | 0.00 | 0.00 | 76 | 1013.3 |
| 20260506081731 | 7 | 28 | 3.2 | 16.1 | 0.00 | 0.00 | 0.00 | 76 | 1013.2 |
| 20260506081230 | 7 | 47 | 3.2 | 16.1 | 0.00 | 0.00 | 0.00 | 77 | 1013.2 |
| 20260506080731 | 7 | 65 | 4.8 | 16.1 | 0.00 | 0.00 | 0.00 | 76 | 1013.3 |
| 20260506080231 | 7 | 124 | 1.6 | 11.3 | 0.00 | 0.00 | 0.00 | 77 | 1013.3 |
| 20260506073231 | 6 | 86 | 6.4 | 14.5 | 0.00 | 0.00 | 0.00 | 77 | 1012.4 |
| 20260506073119 | 6 | 100 | 6.4 | 19.3 | 0.00 | 0.00 | 0.00 | 77 | 1012.4 |
| 20260506072552 | 6 | 94 | 9.7 | 19.3 | 0.00 | 0.00 | 0.00 | 77 | 1012.2 |
| 20260506072124 | 6 | 104 | 9.7 | 19.3 | 0.00 | 0.00 | 0.00 | 77 | 1012.4 |
| 20260506071230 | 6 | 106 | 4.8 | 14.5 | 0.00 | 0.00 | 0.00 | 76 | 1012.8 |
| 20260506071120 | 7 | 99 | 6.4 | 14.5 | 0.00 | 0.00 | 0.00 | 76 | 1012.9 |
| 20260506070231 | 7 | 124 | 1.6 | 11.3 | 0.00 | 0.00 | 0.00 | 76 | 1013.3 |
| 20260506062233 | 6 | 87 | 1.6 | 14.5 | 0.00 | 0.00 | 0.00 | 76 | 1013.3 |
| 20260506061731 | 6 | 86 | 1.6 | 14.5 | 0.00 | 0.00 | 0.00 | 76 | 1013.0 |
| 20260506061614 | 6 | 63 | 3.2 | 9.7 | 0.00 | 0.00 | 0.00 | 76 | 1013.0 |
| 20260506060732 | 6 | 93 | 3.2 | 9.7 | 0.00 | 0.00 | 0.00 | 76 | 1012.8 |
| 20260506060229 | 7 | 61 | 1.6 | 8.0 | 0.00 | 0.00 | 0.00 | 76 | 1012.8 |
| 20260506051122 | 7 | 135 | 12.9 | 27.4 | 0.00 | 0.00 | 0.00 | 73 | 1012.0 |
| 20260506050231 | 7 | 73 | 8.0 | 17.7 | 0.00 | 0.00 | 0.00 | 72 | 1012.0 |
| 20260506050116 | 7 | 138 | 9.7 | 20.9 | 0.00 | 0.00 | 0.00 | 72 | 1011.8 |
| 20260506044732 | 8 | 85 | 9.7 | 27.4 | 0.00 | 0.00 | 0.00 | 71 | 1011.7 |
| 20260506044229 | 8 | 103 | 14.5 | 27.4 | 0.00 | 0.00 | 0.00 | 70 | 1011.6 |
| 20260506043733 | 8 | 94 | 11.3 | 27.4 | 0.00 | 0.00 | 0.00 | 70 | 1011.7 |
| 20260506043230 | 8 | 116 | 12.9 | 27.4 | 0.00 | 0.00 | 0.00 | 69 | 1011.6 |
| 20260506042731 | 8 | 109 | 16.1 | 27.4 | 0.00 | 0.00 | 0.00 | 68 | 1011.5 |
| 20260506042627 | 8 | 110 | 9.7 | 22.5 | 0.00 | 0.00 | 0.00 | 68 | 1011.5 |
| 20260506041732 | 8 | 102 | 12.9 | 22.5 | 0.00 | 0.00 | 0.00 | 67 | 1011.5 |
| 20260506041230 | 8 | 114 | 12.9 | 25.7 | 0.00 | 0.00 | 0.00 | 67 | 1011.6 |
| 20260506040730 | 8 | 104 | 16.1 | 25.7 | 0.00 | 0.00 | 0.00 | 66 | 1011.7 |
| 20260506040231 | 8 | 96 | 6.4 | 25.7 | 0.00 | 0.00 | 0.00 | 66 | 1011.7 |
| 20260506035947 | 9 | 82 | 9.7 | 25.7 | 0.00 | 0.00 | 0.00 | 66 | 1011.6 |
| 20260506035231 | 9 | 140 | 9.7 | 24.1 | 0.00 | 0.00 | 0.00 | 65 | 1011.5 |
| 20260506034729 | 9 | 102 | 11.3 | 19.3 | 0.00 | 0.00 | 0.00 | 64 | 1011.4 |
| 20260506034231 | 9 | 118 | 8.0 | 24.1 | 0.00 | 0.00 | 0.00 | 64 | 1011.3 |
| 20260506033730 | 10 | 104 | 9.7 | 24.1 | 0.00 | 0.00 | 0.00 | 63 | 1011.1 |
| 20260506033230 | 10 | 47 | 4.8 | 19.3 | 0.00 | 0.00 | 0.00 | 62 | 1011.1 |
| 20260506032730 | 10 | 118 | 6.4 | 22.5 | 0.00 | 0.00 | 0.00 | 62 | 1011.1 |
| 20260506032232 | 10 | 111 | 8.0 | 22.5 | 0.00 | 0.00 | 0.00 | 61 | 1011.1 |
| 20260506031732 | 10 | 93 | 12.9 | 22.5 | 0.00 | 0.00 | 0.00 | 60 | 1011.1 |
| 20260506031231 | 10 | 125 | 9.7 | 19.3 | 0.00 | 0.00 | 0.00 | 60 | 1011.3 |
| 20260506030730 | 10 | 97 | 8.0 | 19.3 | 0.00 | 0.00 | 0.00 | 59 | 1010.8 |
| 20260506030230 | 10 | 102 | 9.7 | 17.7 | 0.00 | 0.00 | 0.00 | 58 | 1010.9 |
| 20260506025731 | 11 | 107 | 4.8 | 17.7 | 0.00 | 0.00 | 0.00 | 58 | 1010.8 |
| 20260506025230 | 11 | 106 | 1.6 | 11.3 | 0.00 | 0.00 | 0.00 | 58 | 1010.7 |
| 20260506024730 | 11 | 135 | 4.8 | 19.3 | 0.00 | 0.00 | 0.00 | 58 | 1010.8 |
| 20260506024232 | 11 | 100 | 6.4 | 19.3 | 0.00 | 0.00 | 0.00 | 57 | 1010.9 |
| 20260506023732 | 11 | 100 | 3.2 | 19.3 | 0.00 | 0.00 | 0.00 | 57 | 1010.7 |
| 20260506023614 | 11 | 78 | 6.4 | 19.3 | 0.00 | 0.00 | 0.00 | 56 | 1010.5 |
| 20260506022730 | 11 | 109 | 3.2 | 14.5 | 0.00 | 0.00 | 0.00 | 56 | 1010.5 |
| 20260506022231 | 11 | 68 | 3.2 | 17.7 | 0.00 | 0.00 | 0.00 | 56 | 1010.0 |
| 20260506021731 | 11 | 109 | 8.0 | 17.7 | 0.00 | 0.00 | 0.00 | 56 | 1010.0 |
| 20260506021231 | 11 | 69 | 6.4 | 16.1 | 0.00 | 0.00 | 0.00 | 55 | 1010.0 |
| 20260506020731 | 11 | 118 | 6.4 | 11.3 | 0.00 | 0.00 | 0.00 | 55 | 1009.9 |
| 20260506020231 | 12 | 24 | 4.8 | 14.5 | 0.00 | 0.00 | 0.00 | 56 | 1010.3 |
| 20260506015730 | 12 | 24 | 4.8 | 16.1 | 0.00 | 0.00 | 0.00 | 56 | 1009.8 |
| 20260506015230 | 12 | 32 | 4.8 | 16.1 | 0.00 | 0.00 | 0.00 | 53 | 1010.1 |
| 20260506014730 | 12 | 73 | 3.2 | 11.3 | 0.00 | 0.00 | 0.00 | 53 | 1010.3 |
| 20260506014230 | 12 | 44 | 3.2 | 11.3 | 0.00 | 0.00 | 0.00 | 53 | 1010.0 |
| 20260506014115 | 13 | 16 | 4.8 | 16.1 | 0.00 | 0.00 | 0.00 | 52 | 1010.0 |
| 20260506013230 | 13 | 66 | 4.8 | 20.9 | 0.00 | 0.00 | 0.00 | 52 | 1010.1 |
| 20260506012731 | 13 | 10 | 6.4 | 20.9 | 0.00 | 0.00 | 0.00 | 52 | 1009.9 |
| 20260506012508 | 13 | 0 | 3.2 | 19.3 | 0.00 | 0.00 | 0.00 | 51 | 1009.8 |
| 20260506012358 | 13 | 17 | 6.4 | 14.5 | 0.00 | 0.00 | 0.00 | 51 | 1009.8 |
| 20260506011620 | 13 | 30 | 6.4 | 19.3 | 0.00 | 0.00 | 0.00 | 51 | 1009.5 |
| 20260506011120 | 13 | 24 | 3.2 | 8.0 | 0.00 | 0.00 | 0.00 | 51 | 1009.4 |
| 20260506010231 | 13 | 52 | 3.2 | 14.5 | 0.00 | 0.00 | 0.00 | 51 | 1009.4 |
| 20260506005731 | 13 | 55 | 3.2 | 14.5 | 0.00 | 0.00 | 0.00 | 50 | 1009.3 |
| 20260506005230 | 14 | 117 | 3.2 | 22.5 | 0.00 | 0.00 | 0.00 | 50 | 1009.3 |
| 20260506004730 | 14 | 0 | 3.2 | 22.5 | 0.00 | 0.00 | 0.00 | 49 | 1009.1 |
| 20260506004612 | 15 | 79 | 6.4 | 22.5 | 0.00 | 0.00 | 0.00 | 49 | 1008.8 |
| 20260506003730 | 15 | 82 | 3.2 | 17.7 | 0.00 | 0.00 | 0.00 | 49 | 1008.8 |
| 20260506003230 | 15 | 39 | 1.6 | 9.7 | 0.00 | 0.00 | 0.00 | 49 | 1008.8 |
| 20260506002731 | 15 | 85 | 3.2 | 14.5 | 0.00 | 0.00 | 0.00 | 48 | 1008.8 |
| 20260506002230 | 15 | 86 | 4.8 | 14.5 | 0.00 | 0.00 | 0.00 | 48 | 1008.5 |
| 20260506001731 | 15 | 8 | 3.2 | 14.5 | 0.00 | 0.00 | 0.00 | 47 | 1008.7 |
| 20260506001230 | 15 | 83 | 3.2 | 16.1 | 0.00 | 0.00 | 0.00 | 47 | 1008.6 |
| 20260506000731 | 15 | 123 | 4.8 | 16.1 | 0.00 | 0.00 | 0.00 | 47 | 1008.5 |
| 20260506000232 | 15 | 56 | 8.0 | 20.9 | 0.00 | 0.00 | 0.00 | 47 | 1008.6 |
| 20260505235731 | 15 | 99 | 6.4 | 20.9 | 0.00 | 0.00 | 0.00 | 47 | 1008.6 |
| 20260505235231 | 15 | 52 | 3.2 | 14.5 | 0.00 | 0.00 | 0.00 | 46 | 1008.8 |
| 20260505234729 | 15 | 333 | 4.8 | 14.5 | 0.00 | 0.00 | 0.00 | 47 | 1008.7 |
| 20260505234231 | 16 | 86 | 3.2 | 16.1 | 0.00 | 0.00 | 0.00 | 47 | 1008.7 |
| 20260505233730 | 16 | 0 | 4.8 | 17.7 | 0.00 | 0.00 | 0.00 | 46 | 1008.6 |
| 20260505233230 | 16 | 123 | 9.7 | 17.7 | 0.00 | 0.00 | 0.00 | 46 | 1008.7 |
| 20260505232730 | 16 | 24 | 4.8 | 17.7 | 0.00 | 0.00 | 0.00 | 46 | 1008.7 |
| 20260505232231 | 16 | 55 | 8.0 | 17.7 | 0.00 | 0.00 | 0.00 | 45 | 1008.5 |
| 20260505231732 | 16 | 41 | 3.2 | 19.3 | 0.00 | 0.00 | 0.00 | 45 | 1008.6 |
| 20260505231230 | 16 | 83 | 4.8 | 19.3 | 0.00 | 0.00 | 0.00 | 46 | 1008.6 |
| 20260505230730 | 16 | 106 | 8.0 | 20.9 | 0.00 | 0.00 | 0.00 | 45 | 1008.7 |
| 20260505230233 | 16 | 109 | 6.4 | 20.9 | 0.00 | 0.00 | 0.00 | 45 | 1008.7 |
| 20260505230131 | 17 | 21 | 3.2 | 17.7 | 0.00 | 0.00 | 0.00 | 45 | 1008.8 |
| 20260505225611 | 17 | 109 | 8.0 | 17.7 | 0.00 | 0.00 | 0.00 | 44 | 1008.7 |
| 20260505224730 | 17 | 89 | 6.4 | 17.7 | 0.00 | 0.00 | 0.00 | 44 | 1008.8 |
| 20260505224230 | 17 | 118 | 3.2 | 17.7 | 0.00 | 0.00 | 0.00 | 46 | 1008.8 |
| 20260505224118 | 17 | 102 | 4.8 | 14.5 | 0.00 | 0.00 | 0.00 | 44 | 1008.8 |
| 20260505223230 | 16 | 106 | 3.2 | 16.1 | 0.00 | 0.00 | 0.00 | 45 | 1008.8 |
| 20260505223015 | 16 | 99 | 9.7 | 24.1 | 0.00 | 0.00 | 0.00 | 44 | 1009.1 |
| 20260505222902 | 16 | 38 | 3.2 | 24.1 | 0.00 | 0.00 | 0.00 | 45 | 1009.1 |
| 20260505221730 | 16 | 16 | 1.6 | 14.5 | 0.00 | 0.00 | 0.00 | 44 | 1009.0 |
| 20260505221231 | 16 | 31 | 3.2 | 14.5 | 0.00 | 0.00 | 0.00 | 44 | 1009.1 |
| 20260505221016 | 17 | 113 | 3.2 | 11.3 | 0.00 | 0.00 | 0.00 | 44 | 1009.1 |
| 20260505220903 | 17 | 55 | 1.6 | 14.5 | 0.00 | 0.00 | 0.00 | 44 | 1009.1 |
| 20260505215730 | 17 | 35 | 3.2 | 11.3 | 0.00 | 0.00 | 0.00 | 43 | 1009.0 |
| 20260505215231 | 17 | 59 | 4.8 | 16.1 | 0.00 | 0.00 | 0.00 | 44 | 1009.4 |
| 20260505214732 | 17 | 102 | 8.0 | 16.1 | 0.00 | 0.00 | 0.00 | 43 | 1009.5 |
| 20260505214621 | 17 | 168 | 6.4 | 16.1 | 0.00 | 0.00 | 0.00 | 42 | 1009.6 |
| 20260505213730 | 17 | 94 | 1.6 | 11.3 | 0.00 | 0.00 | 0.00 | 44 | 1009.8 |
| 20260505213618 | 17 | 25 | 3.2 | 11.3 | 0.00 | 0.00 | 0.00 | 43 | 1010.0 |
| 20260505212731 | 17 | 111 | 1.6 | 8.0 | 0.00 | 0.00 | 0.00 | 43 | 1009.9 |
| 20260505212230 | 17 | 30 | 1.6 | 8.0 | 0.00 | 0.00 | 0.00 | 45 | 1010.0 |
| 20260505211732 | 17 | 35 | 1.6 | 16.1 | 0.00 | 0.00 | 0.00 | 45 | 1010.3 |
| 20260505211231 | 16 | 259 | 4.8 | 16.1 | 0.00 | 0.00 | 0.00 | 44 | 1010.4 |
| 20260505210730 | 17 | 97 | 6.4 | 16.1 | 0.00 | 0.00 | 0.00 | 45 | 1010.3 |
| 20260505210230 | 16 | 0 | 0.0 | 16.1 | 0.00 | 0.00 | 0.00 | 45 | 1010.3 |
| 20260505205731 | 16 | 96 | 6.4 | 16.1 | 0.00 | 0.00 | 0.00 | 44 | 1010.3 |
| 20260505205615 | 16 | 59 | 4.8 | 9.7 | 0.00 | 0.00 | 0.00 | 44 | 1010.3 |
| 20260505204731 | 17 | 52 | 1.6 | 17.7 | 0.00 | 0.00 | 0.00 | 42 | 1010.5 |
| 20260505204232 | 17 | 23 | 3.2 | 19.3 | 0.00 | 0.00 | 0.00 | 43 | 1010.5 |
| 20260505203730 | 17 | 23 | 1.6 | 19.3 | 0.00 | 0.00 | 0.00 | 42 | 1010.5 |
| 20260505203231 | 18 | 17 | 3.2 | 14.5 | 0.00 | 0.00 | 0.00 | 42 | 1010.5 |
| 20260505202733 | 17 | 27 | 8.0 | 14.5 | 0.00 | 0.00 | 0.00 | 46 | 1010.5 |
| 20260505202232 | 17 | 65 | 6.4 | 14.5 | 0.00 | 0.00 | 0.00 | 44 | 1010.5 |
| 20260505201731 | 17 | 39 | 3.2 | 11.3 | 0.00 | 0.00 | 0.00 | 44 | 1010.9 |
| 20260505201613 | 17 | 37 | 4.8 | 11.3 | 0.00 | 0.00 | 0.00 | 44 | 1010.8 |
| 20260505200730 | 16 | 8 | 4.8 | 14.5 | 0.00 | 0.00 | 0.00 | 45 | 1010.8 |
| 20260505200230 | 16 | 345 | 6.4 | 14.5 | 0.00 | 0.00 | 0.00 | 44 | 1010.5 |
| 20260505195731 | 16 | 47 | 3.2 | 16.1 | 0.00 | 0.00 | 0.00 | 44 | 1010.6 |
| 20260505195232 | 17 | 31 | 3.2 | 16.1 | 0.00 | 0.00 | 0.00 | 43 | 1010.5 |
| 20260505194730 | 17 | 24 | 3.2 | 14.5 | 0.00 | 0.00 | 0.00 | 44 | 1010.5 |
| 20260505194232 | 17 | 78 | 4.8 | 17.7 | 0.00 | 0.00 | 0.00 | 45 | 1010.4 |
| 20260505193731 | 17 | 0 | 8.0 | 17.7 | 0.00 | 0.00 | 0.00 | 44 | 1010.6 |
| 20260505193230 | 17 | 0 | 3.2 | 16.1 | 0.00 | 0.00 | 0.00 | 43 | 1010.7 |
| 20260505192731 | 17 | 52 | 1.6 | 14.5 | 0.00 | 0.00 | 0.00 | 43 | 1010.7 |
| 20260505192229 | 17 | 52 | 3.2 | 14.5 | 0.00 | 0.00 | 0.00 | 44 | 1010.9 |
| 20260505191731 | 17 | 21 | 3.2 | 16.1 | 0.00 | 0.00 | 0.00 | 43 | 1010.8 |
| 20260505191231 | 17 | 54 | 3.2 | 16.1 | 0.00 | 0.00 | 0.00 | 42 | 1010.7 |
| 20260505191017 | 18 | 72 | 1.6 | 19.3 | 0.00 | 0.00 | 0.00 | 42 | 1010.6 |
| 20260505190902 | 18 | 25 | 3.2 | 14.5 | 0.00 | 0.00 | 0.00 | 43 | 1010.6 |
| 20260505185729 | 18 | 27 | 6.4 | 19.3 | 0.00 | 0.00 | 0.00 | 43 | 1010.6 |
| 20260505185230 | 17 | 13 | 3.2 | 19.3 | 0.00 | 0.00 | 0.00 | 44 | 1010.9 |
| 20260505184731 | 17 | 0 | 4.8 | 19.3 | 0.00 | 0.00 | 0.00 | 46 | 1011.0 |
| 20260505184230 | 17 | 0 | 6.4 | 24.1 | 0.00 | 0.00 | 0.00 | 41 | 1010.9 |
| 20260505183729 | 17 | 334 | 9.7 | 24.1 | 0.00 | 0.00 | 0.00 | 43 | 1010.8 |
| 20260505183230 | 17 | 0 | 9.7 | 19.3 | 0.00 | 0.00 | 0.00 | 43 | 1010.9 |
| 20260505182731 | 17 | 3 | 8.0 | 17.7 | 0.00 | 0.00 | 0.00 | 44 | 1010.6 |
| 20260505182230 | 17 | 25 | 8.0 | 24.1 | 0.00 | 0.00 | 0.00 | 44 | 1010.9 |
| 20260505182112 | 16 | 354 | 9.7 | 24.1 | 0.00 | 0.00 | 0.00 | 44 | 1010.9 |
| 20260505181229 | 16 | 8 | 8.0 | 17.7 | 0.00 | 0.00 | 0.00 | 44 | 1011.0 |
| 20260505180729 | 16 | 34 | 8.0 | 20.9 | 0.00 | 0.00 | 0.00 | 43 | 1011.4 |
| 20260505180228 | 16 | 14 | 6.4 | 20.9 | 0.00 | 0.00 | 0.00 | 45 | 1011.4 |
| 20260505175729 | 16 | 6 | 3.2 | 14.5 | 0.00 | 0.00 | 0.00 | 47 | 1011.3 |
| 20260505175229 | 15 | 28 | 3.2 | 19.3 | 0.00 | 0.00 | 0.00 | 46 | 1011.3 |
| 20260505174731 | 15 | 0 | 4.8 | 19.3 | 0.00 | 0.00 | 0.00 | 47 | 1011.3 |
| 20260505174228 | 16 | 25 | 6.4 | 17.7 | 0.00 | 0.00 | 0.00 | 47 | 1011.1 |
| 20260505173729 | 16 | 21 | 6.4 | 22.5 | 0.00 | 0.00 | 0.00 | 45 | 1011.1 |
| 20260505173230 | 16 | 0 | 9.7 | 25.7 | 0.00 | 0.00 | 0.00 | 46 | 1011.1 |
| 20260505172729 | 16 | 13 | 9.7 | 25.7 | 0.00 | 0.00 | 0.00 | 45 | 1011.3 |
| 20260505172229 | 16 | 354 | 9.7 | 25.7 | 0.00 | 0.00 | 0.00 | 48 | 1011.0 |
| 20260505171729 | 15 | 1 | 6.4 | 25.7 | 0.00 | 0.00 | 0.00 | 47 | 1011.0 |
| 20260505171230 | 15 | 23 | 11.3 | 22.5 | 0.00 | 0.00 | 0.00 | 47 | 1011.0 |
| 20260505170730 | 15 | 18 | 9.7 | 22.5 | 0.00 | 0.00 | 0.00 | 48 | 1010.9 |
| 20260505170230 | 15 | 13 | 9.7 | 22.5 | 0.00 | 0.00 | 0.00 | 49 | 1011.0 |
| 20260505165731 | 15 | 0 | 6.4 | 17.7 | 0.00 | 0.00 | 0.00 | 50 | 1011.1 |
| 20260505165230 | 15 | 52 | 6.4 | 20.9 | 0.00 | 0.00 | 0.00 | 51 | 1010.9 |
| 20260505164731 | 14 | 34 | 4.8 | 20.9 | 0.00 | 0.00 | 0.00 | 50 | 1010.9 |
| 20260505164231 | 14 | 21 | 11.3 | 19.3 | 0.00 | 0.00 | 0.00 | 50 | 1010.9 |
| 20260505163729 | 15 | 37 | 8.0 | 20.9 | 0.00 | 0.00 | 0.00 | 49 | 1011.0 |
| 20260505163229 | 15 | 7 | 9.7 | 22.5 | 0.00 | 0.00 | 0.00 | 49 | 1011.0 |
| 20260505162730 | 15 | 355 | 9.7 | 30.6 | 0.00 | 0.00 | 0.00 | 49 | 1010.9 |
| 20260505162617 | 14 | 0 | 11.3 | 30.6 | 0.00 | 0.00 | 0.00 | 50 | 1011.1 |
| 20260505161731 | 14 | 0 | 6.4 | 24.1 | 0.00 | 0.00 | 0.00 | 50 | 1011.0 |
| 20260505161230 | 13 | 16 | 14.5 | 24.1 | 0.00 | 0.00 | 0.00 | 52 | 1011.0 |
| 20260505161124 | 13 | 10 | 11.3 | 27.4 | 0.00 | 0.00 | 0.00 | 53 | 1010.8 |
| 20260505160612 | 13 | 348 | 12.9 | 27.4 | 0.00 | 0.00 | 0.00 | 52 | 1010.7 |
| 20260505153228 | 14 | 13 | 11.3 | 27.4 | 0.00 | 0.00 | 0.00 | 50 | 1010.5 |
| 20260505152729 | 14 | 351 | 16.1 | 27.4 | 0.00 | 0.00 | 0.00 | 50 | 1010.5 |
| 20260505152230 | 13 | 13 | 9.7 | 22.5 | 0.00 | 0.00 | 0.00 | 51 | 1010.4 |
| 20260505151729 | 13 | 0 | 8.0 | 20.9 | 0.00 | 0.00 | 0.00 | 51 | 1010.3 |
| 20260505151229 | 13 | 0 | 9.7 | 22.5 | 0.00 | 0.00 | 0.00 | 52 | 1010.1 |
| 20260505150729 | 13 | 10 | 12.9 | 22.5 | 0.00 | 0.00 | 0.00 | 51 | 1010.0 |
| 20260505150232 | 13 | 21 | 9.7 | 19.3 | 0.00 | 0.00 | 0.00 | 51 | 1009.9 |